Weather History for Hof Plauen, Germany

Change the Weather History Date:

Sunday, December 2, 2012

  Actual Average Record
Temperature  
Mean Temperature 26 °F -  
Max Temperature 30 °F 35 °F 50 °F (2011)
Min Temperature 21 °F 30 °F 6 °F (2010)
Degree Days  
Heating Degree Days 40    
Moisture  
Dew Point 24 °F    
Average Humidity 93    
Maximum Humidity 100    
Minimum Humidity 86    
Precipitation  
Precipitation 0.01 in - - ()
Sea Level Pressure  
Sea Level Pressure 29.80 in    
Wind  
Wind Speed 9 mph ()    
Max Wind Speed 20 mph    
Max Gust Speed -    
Visibility 3.3 miles    
Events Rain , Snow    
Averages and records for this station are not official NWS values.
T = Trace of Precipitation, MM = Missing Value Source: Averaged Metar Reports

Daily Weather History Graph

Daily Weather History Graph

Search for Another Location

Airport:

Trip Planner

Search our weather history database for the weather conditions in past years. The results will help you decide how hot, cold, wet, or windy it might be!

Date:

Astronomy

Dec. 02, 2012 Rise Set
Actual Time 7:52 AM CET 4:11 PM CET
Civil Twilight 7:14 AM CET 4:49 PM CET
Nautical Twilight 6:33 AM CET 5:30 PM CET
Astronomical Twilight 5:54 AM CET 6:09 PM CET
Moon 7:52 PM CET (12/2) 10:24 AM CET (12/2)
Length of Visible Light 9h 35m
Length of Day
8h 19m
Waning Gibbous, 87% of the Moon is Illuminated
Dec 2
Waning Gibbous
Dec 6
Last Quarter
Dec 13
New
Dec 20
First Quarter
Dec 28
Full

Hourly Weather History & Observations

Time (CET) Temp. Windchill Dew Point Humidity Pressure Visibility Wind Dir Wind Speed Gust Speed Precip Events Conditions
12:00 AM 23 °F - 22 °F 97% 29.97 in 2 mi SSW 8.9 mph - -   Mist
12:20 AM 23.0 °F 13.9 °F 21.2 °F 93% 29.83 in - South 8.1 mph - N/A   Partly Cloudy
12:50 AM 23.0 °F 13.9 °F 19.4 °F 86% 29.83 in 3.1 mi South 8.1 mph - N/A   Mist
1:00 AM 22 °F - 22 °F 100% 29.96 in 2 mi South 6.7 mph - -   Mist
1:20 AM 21.2 °F 12.6 °F 19.4 °F 93% 29.83 in 3.7 mi South 6.9 mph - N/A   Mist
1:50 AM 21.2 °F 10.9 °F 19.4 °F 93% 29.83 in 3.7 mi SSW 9.2 mph - N/A   Mostly Cloudy
2:00 AM 22 °F - 21 °F 94% 29.95 in 3 mi SSW 4.5 mph - -   Mist
2:20 AM 21.2 °F 11.7 °F 19.4 °F 93% 29.83 in 3.7 mi South 8.1 mph - N/A   Overcast
2:50 AM 23.0 °F 13.1 °F 19.4 °F 86% 29.80 in - SSW 9.2 mph - N/A   Overcast
3:00 AM 22 °F - 22 °F 97% 29.94 in 2 mi South 6.7 mph - -   Mist
3:20 AM 23.0 °F 11.7 °F 19.4 °F 86% 29.80 in - SSW 11.5 mph - N/A   Ice Crystals
3:50 AM 23.0 °F 12.4 °F 19.4 °F 86% 29.80 in - SSW 10.4 mph - N/A   Ice Crystals
4:20 AM 23.0 °F 11.1 °F 19.4 °F 86% 29.80 in - SSW 12.7 mph - N/A   Overcast
4:50 AM 21.2 °F 9.5 °F 19.4 °F 93% 29.77 in - South 11.5 mph - N/A   Overcast
5:00 AM 22 °F - 21 °F 96% 29.91 in 2 mi SSW 8.9 mph - - Rain Light Freezing Rain
5:20 AM 23.0 °F 11.1 °F 19.4 °F 86% 29.77 in - South 12.7 mph - N/A   Overcast
5:50 AM 23.0 °F 11.7 °F 19.4 °F 86% 29.77 in 2.2 mi South 11.5 mph - N/A   Overcast
6:00 AM 22 °F - 22 °F 100% 29.89 in 2 mi South 8.9 mph - -   Mist
6:20 AM 23.0 °F 13.1 °F 21.2 °F 93% 29.77 in - South 9.2 mph - N/A   Ice Crystals
6:50 AM 23.0 °F 12.4 °F 21.2 °F 93% 29.77 in - South 10.4 mph - N/A   Ice Crystals
7:00 AM 23 °F - 23 °F 98% 29.88 in 2 mi South 11.2 mph - -   Ice Crystals
7:20 AM 23.0 °F 13.1 °F 21.2 °F 93% 29.74 in - South 9.2 mph - N/A Snow Snow Grains
7:50 AM 23.0 °F 12.4 °F 21.2 °F 93% 29.74 in 3.1 mi South 10.4 mph - N/A   Ice Crystals
8:00 AM 24 °F - 23 °F 93% 29.87 in 2 mi South 11.2 mph - -   Ice Crystals
8:20 AM 24.8 °F 13.4 °F 23.0 °F 93% 29.77 in 4.3 mi SSW 12.7 mph - N/A Snow Snow Grains
8:50 AM 24.8 °F 12.4 °F 23.0 °F 93% 29.77 in 2.5 mi SSW 15.0 mph - N/A   Overcast
9:00 AM 25 °F - 23 °F 91% 29.87 in 3 mi SSW 8.9 mph - -   Ice Crystals
9:20 AM 24.8 °F 12.9 °F 23.0 °F 93% 29.77 in 3.1 mi SSW 13.8 mph - N/A   Overcast
9:50 AM 24.8 °F 10.7 °F 23.0 °F 93% 29.74 in 3.7 mi SSW 19.6 mph - N/A   Mostly Cloudy
10:20 AM 26.6 °F 13.8 °F 23.0 °F 86% 29.74 in 3.7 mi SSW 17.3 mph - N/A   Mostly Cloudy
10:50 AM 26.6 °F 14.3 °F 23.0 °F 86% 29.74 in 3.7 mi SSW 16.1 mph - N/A   Mostly Cloudy
11:00 AM 26 °F - 24 °F 88% 29.86 in 4 mi SSW 13.4 mph - -   Ice Crystals
11:20 AM 26.6 °F 14.3 °F 23.0 °F 86% 29.74 in 4.3 mi SSW 16.1 mph - N/A   Mostly Cloudy
11:50 AM 26.6 °F 14.7 °F 23.0 °F 86% 29.74 in 3.7 mi SSW 15.0 mph - N/A   Mostly Cloudy
12:00 PM 26 °F - 24 °F 91% 29.86 in 4 mi SSW 6.7 mph - - Snow Light Snow
12:20 PM 26.6 °F 14.7 °F 23.0 °F 86% 29.74 in 3.1 mi SSW 15.0 mph - N/A   Overcast
12:50 PM 26.6 °F 16.2 °F 24.8 °F 93% 29.74 in 2.5 mi SSW 11.5 mph - N/A   Overcast
1:00 PM 26 °F - 25 °F 95% 29.85 in 3 mi South 6.7 mph - -   Ice Crystals
1:20 PM 26.6 °F 19.1 °F 24.8 °F 93% 29.74 in 2.5 mi SSW 6.9 mph - N/A   Overcast
1:50 PM 26.6 °F 18.2 °F 24.8 °F 93% 29.74 in 1.9 mi SSW 8.1 mph - N/A   Overcast
2:00 PM 27 °F - 26 °F 93% 29.85 in 3 mi SSW 4.5 mph - - Snow Snow Grains
2:20 PM 26.6 °F 15.7 °F 24.8 °F 93% 29.74 in 2.2 mi SSW 12.7 mph - N/A   Overcast
2:50 PM 26.6 °F 16.8 °F 24.8 °F 93% 29.74 in - SSW 10.4 mph - N/A Snow Light Snow
3:00 PM 27 °F - 27 °F 99% 29.84 in 2 mi SW 6.7 mph - - Snow Snow Grains
3:20 PM 26.6 °F 16.2 °F 24.8 °F 93% 29.74 in 1.6 mi SW 11.5 mph - N/A Snow Light Snow
3:50 PM 26.6 °F 17.5 °F 24.8 °F 93% 29.74 in 2.2 mi SSW 9.2 mph - N/A Snow Light Snow
4:20 PM 28.4 °F 18.5 °F 26.6 °F 93% 29.74 in 5.0 mi SSW 11.5 mph - N/A Snow Light Snow
4:50 PM 28.4 °F 18.0 °F 26.6 °F 93% 29.74 in 3.1 mi SW 12.7 mph - N/A Snow Light Snow
5:00 PM 28 °F - 28 °F 98% 29.84 in 2 mi SW 8.9 mph - - Snow Light Snow
5:20 PM 28.4 °F 18.0 °F 26.6 °F 93% 29.74 in 1.4 mi SW 12.7 mph - N/A Snow Light Snow
5:50 PM 28.4 °F 18.5 °F 26.6 °F 93% 29.74 in 3.1 mi SW 11.5 mph - N/A Snow Light Snow
6:00 PM 29 °F - 28 °F 96% 29.84 in 2 mi SW 8.9 mph - - Snow Light Snow
6:50 PM 28.4 °F 18.5 °F 26.6 °F 93% 29.77 in 5.6 mi SW 11.5 mph - N/A Snow Light Snow
7:00 PM 29 °F - 29 °F 98% 29.86 in 3 mi WSW 8.9 mph - - Snow Light Snow
7:20 PM 28.4 °F 19.7 °F 26.6 °F 93% 29.77 in - SW 9.2 mph - N/A Snow Light Snow
7:50 PM 30.2 °F 21.9 °F 28.4 °F 93% 29.77 in 6.2 mi SW 9.2 mph - N/A Snow Light Snow
8:00 PM 29 °F - 29 °F 100% 29.86 in 3 mi WSW 6.7 mph - - Snow Light Snow
8:20 PM 30.2 °F 20.2 °F 28.4 °F 93% 29.77 in 6.2 mi WSW 12.7 mph - N/A Snow Light Snow
8:50 PM 30.2 °F 20.8 °F 28.4 °F 93% 29.77 in 6.2 mi WSW 11.5 mph - N/A   Mostly Cloudy
9:00 PM 29 °F - 29 °F 100% 29.87 in 4 mi West 13.4 mph - - Snow Light Snow
9:20 PM 30.2 °F 21.3 °F 28.4 °F 93% 29.77 in 6.2 mi WSW 10.4 mph - N/A Snow Snow Grains
9:50 PM 30.2 °F 21.3 °F 28.4 °F 93% 29.80 in 6.2 mi WSW 10.4 mph - N/A Snow Light Snow
10:20 PM 30.2 °F 21.3 °F 28.4 °F 93% 29.80 in - WSW 10.4 mph - N/A Snow Light Snow
10:50 PM 30.2 °F 21.3 °F 28.4 °F 93% 29.80 in - West 10.4 mph - N/A Snow Light Snow
11:00 PM 30 °F - 30 °F 98% 29.90 in 4 mi West 8.9 mph - - Snow Snow Grains
11:20 PM 30.2 °F 23.4 °F 28.4 °F 93% 29.80 in 6.2 mi West 6.9 mph - N/A Snow Snow Grains
11:50 PM 30.2 °F 23.4 °F 28.4 °F 93% 29.83 in 3.1 mi WNW 6.9 mph - N/A Snow Light Snow